Location: Dallas(GA)
(33.9240°N, 84.8410°W)
Time: 21:23:52
(UTC-04:00)

N. Korean satellite - Pass Details

Date: 05 October 2020
Orbit: 453 x 505 km, 97.2° (Epoch: 25 October)

Event Time Altitude Azimuth Distance (km) Brightness Sun altitude
Rises 06:24:43 0° 28° (NNE) 2,530 10.7 -15.8°
Reaches altitude 10° 06:27:11 10° 46° (NE) 1,636 10.0 -15.3°
Maximum altitude 06:29:51 20° 95° (E) 1,125 9.4 -14.8°
Drops below altitude 10° 06:32:29 10° 145° (SE) 1,606 9.6 -14.2°
Sets 06:34:52 0° 163° (SSE) 2,467 10.3 -13.7°
